Weather History for Taos, NM

Change the Weather History Date:

Monday, November 19, 2012

  Actual Average Record
Temperature  
Mean Temperature 38 °F -  
Max Temperature 57 °F 47 °F 68 °F (2007)
Min Temperature 19 °F 17 °F 3 °F (2000)
Degree Days  
Heating Degree Days 27    
Moisture  
Dew Point 16 °F    
Average Humidity 51    
Maximum Humidity 80    
Minimum Humidity 15    
Precipitation  
Precipitation 0.00 in - - ()
Sea Level Pressure  
Sea Level Pressure 30.35 in    
Wind  
Wind Speed 5 mph (North)    
Max Wind Speed 10 mph    
Max Gust Speed -    
Visibility 10 miles    
Events      
Averages and records for this station are not official NWS values.
T = Trace of Precipitation, MM = Missing Value Source: NWS Daily Summary

Daily Weather History Graph

Daily Weather History Graph

Search for Another Location

Airport:

Trip Planner

Search our weather history database for the weather conditions in past years. The results will help you decide how hot, cold, wet, or windy it might be!

Date:

Astronomy

Nov. 19, 2012 Rise Set
Actual Time 6:44 AM MST 4:51 PM MST
Civil Twilight 6:17 AM MST 5:19 PM MST
Nautical Twilight 5:45 AM MST 5:50 PM MST
Astronomical Twilight 5:14 AM MST 6:21 PM MST
Moon 11:52 AM MST (11/19) 11:16 PM MST (11/19)
Length of Visible Light 11h 02m
Length of Day
10h 06m
Waxing Crescent, 41% of the Moon is Illuminated
Nov 19
Waxing Crescent
Nov 20
First Quarter
Nov 28
Full
Dec 6
Last Quarter
Dec 13
New

Hourly Weather History & Observations

Time (MST) Temp. Windchill Dew Point Humidity Pressure Visibility Wind Dir Wind Speed Gust Speed Precip Events Conditions
12:15 AM 26.6 °F 20.0 °F 19.4 °F 74% 30.30 in 10.0 mi NNE 5.8 mph - N/A   Clear
12:35 AM 26.6 °F 22.6 °F 19.4 °F 74% 30.29 in 10.0 mi NNE 3.5 mph - N/A   Clear
12:55 AM 24.8 °F 20.5 °F 15.8 °F 69% 30.29 in 10.0 mi North 3.5 mph - N/A   Clear
1:15 AM 26.6 °F 19.1 °F 17.6 °F 69% 30.29 in 10.0 mi North 6.9 mph - N/A   Clear
1:35 AM 24.8 °F 16.1 °F 15.8 °F 69% 30.30 in 10.0 mi NNE 8.1 mph - N/A   Clear
1:55 AM 26.6 °F 19.1 °F 17.6 °F 69% 30.30 in 10.0 mi NNE 6.9 mph - N/A   Clear
2:15 AM 26.6 °F 18.2 °F 17.6 °F 69% 30.30 in 10.0 mi NNE 8.1 mph - N/A   Clear
2:35 AM 26.6 °F 18.2 °F 17.6 °F 69% 30.30 in 10.0 mi NNE 8.1 mph - N/A   Clear
2:55 AM 26.6 °F 21.2 °F 17.6 °F 69% 30.30 in 10.0 mi North 4.6 mph - N/A   Clear
3:15 AM 24.8 °F 19.1 °F 15.8 °F 69% 30.31 in 10.0 mi North 4.6 mph - N/A   Clear
3:35 AM 23.0 °F 18.4 °F 15.8 °F 74% 30.30 in 10.0 mi North 3.5 mph - N/A   Clear
3:55 AM 19.4 °F 11.5 °F 12.2 °F 74% 30.31 in 10.0 mi North 5.8 mph - N/A   Clear
4:15 AM 19.4 °F 9.5 °F 10.4 °F 68% 30.32 in 10.0 mi North 8.1 mph - N/A   Clear
4:35 AM 21.2 °F 12.6 °F 14.0 °F 74% 30.33 in 10.0 mi North 6.9 mph - N/A   Clear
4:55 AM 21.2 °F 13.6 °F 15.8 °F 80% 30.33 in 10.0 mi NNE 5.8 mph - N/A   Clear
5:15 AM 23.0 °F 13.1 °F 15.8 °F 74% 30.34 in 10.0 mi NNE 9.2 mph - N/A   Clear
5:35 AM 23.0 °F - 17.6 °F 80% 30.33 in 10.0 mi Calm Calm - N/A   Clear
5:55 AM 24.8 °F 20.5 °F 19.4 °F 80% 30.33 in 10.0 mi ENE 3.5 mph - N/A   Clear
6:35 AM 23.0 °F 18.4 °F 15.8 °F 74% 30.34 in 10.0 mi NE 3.5 mph - N/A   Clear
6:55 AM 19.4 °F 10.4 °F 12.2 °F 74% 30.34 in 10.0 mi North 6.9 mph - N/A   Clear
7:15 AM 19.4 °F 9.5 °F 14.0 °F 80% 30.35 in 10.0 mi North 8.1 mph - N/A   Clear
7:35 AM 19.4 °F 12.8 °F 14.0 °F 80% 30.36 in 10.0 mi North 4.6 mph - N/A   Clear
7:55 AM 21.2 °F - 15.8 °F 80% 30.37 in 10.0 mi Calm Calm - N/A   Clear
8:15 AM 26.6 °F 22.6 °F 21.2 °F 80% 30.38 in 10.0 mi NNW 3.5 mph - N/A   Clear
8:35 AM 32.0 °F - 21.2 °F 64% 30.39 in 10.0 mi Calm Calm - N/A   Clear
8:55 AM 35.6 °F - 21.2 °F 56% 30.39 in 10.0 mi Calm Calm - N/A   Clear
9:15 AM 39.2 °F - 24.8 °F 56% 30.39 in 10.0 mi Calm Calm - N/A   Clear
9:35 AM 42.8 °F 41.1 °F 24.8 °F 49% 30.39 in 10.0 mi West 3.5 mph - N/A   Clear
9:55 AM 44.6 °F - 24.8 °F 46% 30.39 in 10.0 mi Calm Calm - N/A   Clear
10:15 AM 44.6 °F - 24.8 °F 46% 30.39 in 10.0 mi Calm Calm - N/A   Clear
10:35 AM 46.4 °F - 24.8 °F 43% 30.39 in 10.0 mi Calm Calm - N/A   Clear
10:55 AM 48.2 °F - 24.8 °F 40% 30.38 in 10.0 mi NW 5.8 mph - N/A   Clear
11:15 AM 48.2 °F - 23.0 °F 37% 30.37 in 10.0 mi Calm Calm - N/A   Clear
11:35 AM 48.2 °F - 21.2 °F 34% 30.36 in 10.0 mi Calm Calm - N/A   Clear
11:55 AM 51.8 °F - 23.0 °F 33% 30.35 in 10.0 mi North 4.6 mph - N/A   Clear
12:15 PM 51.8 °F - 21.2 °F 30% 30.35 in 10.0 mi NW 3.5 mph - N/A   Clear
12:35 PM 53.6 °F - 21.2 °F 28% 30.34 in 10.0 mi NNW 5.8 mph - N/A   Clear
12:55 PM 53.6 °F - 17.6 °F 24% 30.33 in 10.0 mi WNW 4.6 mph - N/A   Clear
1:15 PM 53.6 °F - 19.4 °F 26% 30.33 in 10.0 mi West 3.5 mph - N/A   Clear
1:35 PM 53.6 °F - 17.6 °F 24% 30.33 in 10.0 mi West 3.5 mph - N/A   Clear
1:55 PM 55.4 °F - 15.8 °F 21% 30.32 in 10.0 mi Calm Calm - N/A   Clear
2:15 PM - - - N/A% 30.32 in - Calm Calm - N/A   Unknown
2:35 PM 57.2 °F - 10.4 °F 16% 30.32 in 10.0 mi West 3.5 mph - N/A   Clear
2:55 PM 55.4 °F - 10.4 °F 17% 30.31 in 10.0 mi West 5.8 mph - N/A   Clear
3:15 PM 55.4 °F - 8.6 °F 15% 30.31 in 10.0 mi West 8.1 mph - N/A   Clear
3:35 PM 55.4 °F - 15.8 °F 21% 30.32 in 10.0 mi West 6.9 mph - N/A   Clear
3:55 PM 55.4 °F - 15.8 °F 21% 30.32 in 10.0 mi West 6.9 mph - N/A   Clear
4:15 PM 53.6 °F - 17.6 °F 24% 30.33 in 10.0 mi WSW 6.9 mph - N/A   Clear
4:35 PM 50.0 °F - 15.8 °F 26% 30.33 in 10.0 mi WSW 4.6 mph - N/A   Clear
4:55 PM 48.2 °F - 15.8 °F 27% 30.34 in 10.0 mi WSW 5.8 mph - N/A   Clear
5:15 PM 46.4 °F 43.5 °F 8.6 °F 22% 30.34 in 10.0 mi SW 5.8 mph - N/A   Clear
5:35 PM 46.4 °F - 17.6 °F 32% 30.35 in 10.0 mi Calm Calm - N/A   Clear
5:55 PM 37.4 °F 33.8 °F 10.4 °F 33% 30.36 in 10.0 mi ESE 4.6 mph - N/A   Clear
6:15 PM 35.6 °F 28.0 °F 12.2 °F 38% 30.36 in 10.0 mi East 10.4 mph - N/A   Clear
6:35 PM 37.4 °F 31.4 °F 14.0 °F 38% 30.36 in 10.0 mi ENE 8.1 mph - N/A   Clear
6:55 PM 33.8 °F 27.7 °F 12.2 °F 41% 30.37 in 10.0 mi East 6.9 mph - N/A   Clear
7:15 PM 33.8 °F 27.0 °F 12.2 °F 41% 30.36 in 10.0 mi East 8.1 mph - N/A   Clear
7:35 PM 33.8 °F 26.4 °F 15.8 °F 48% 30.36 in 10.0 mi East 9.2 mph - N/A   Clear
8:15 PM 33.8 °F 29.6 °F 14.0 °F 44% 30.37 in 10.0 mi NNE 4.6 mph - N/A   Clear
8:35 PM 30.2 °F 23.4 °F 10.4 °F 44% 30.37 in 10.0 mi NNE 6.9 mph - N/A   Clear
8:55 PM 30.2 °F 23.4 °F 12.2 °F 47% 30.38 in 10.0 mi NNE 6.9 mph - N/A   Clear
9:15 PM 30.2 °F 24.3 °F 12.2 °F 47% 30.38 in 10.0 mi NNE 5.8 mph - N/A   Clear
9:35 PM 30.2 °F 24.3 °F 12.2 °F 47% 30.38 in 10.0 mi NNE 5.8 mph - N/A   Clear
9:55 PM 28.4 °F - 12.2 °F 51% 30.38 in 10.0 mi Calm Calm - N/A   Clear
10:15 PM 26.6 °F - 12.2 °F 55% 30.38 in 10.0 mi Calm Calm - N/A   Clear
10:35 PM 26.6 °F 21.2 °F 12.2 °F 55% 30.38 in 10.0 mi North 4.6 mph - N/A   Clear
10:55 PM 26.6 °F - 12.2 °F 55% 30.38 in 10.0 mi Calm Calm - N/A   Clear
11:15 PM 21.2 °F - 10.4 °F 63% 30.38 in 10.0 mi Calm Calm - N/A   Clear
11:35 PM 23.0 °F 15.8 °F 8.6 °F 54% 30.39 in 10.0 mi North 5.8 mph - N/A   Clear
11:55 PM 24.8 °F 20.5 °F 10.4 °F 54% 30.39 in 10.0 mi WNW 3.5 mph - N/A   Clear